Kimball, NE

4:13 PM MST on December 07, 2016 (GMT -0700)
Kimball Municipal-Arraj

Weather History for KIBM - January, 2013

Change the Weather History Date:

Saturday, January 19, 2013

  Actual Average (KSNY) Record (KSNY)
Temperature  
Mean Temperature 40 °F 29 °F  
Max Temperature 54 °F 42 °F 63 °F (1997)
Min Temperature 27 °F 16 °F -30 °F (1963)
Degree Days  
Heating Degree Days 24 36  
Month to date heating degree days 684  
Since 1 July heating degree days 3231  
Cooling Degree Days 0 0  
Month to date cooling degree days 0  
Year to date cooling degree days 0  
Moisture  
Dew Point 9 °F    
Average Humidity 29    
Maximum Humidity 56    
Minimum Humidity 13    
Precipitation  
Precipitation 0.00 in 0.01 in 0.26 in (1966)
Month to date precipitation 0.12  
Year to date precipitation 0.12  
Sea Level Pressure  
Sea Level Pressure 30.13 in    
Wind  
Wind Speed 17 mph (NW)    
Max Wind Speed 28 mph    
Max Gust Speed 32 mph    
Visibility 10 miles    
Events      
T = Trace of Precipitation, MM = Missing Value Source: NWS Daily Summary

Daily Weather History Graph

Daily Weather History Graph

Search for Another Location

Airport or City:

Trip Planner

Search our weather history database for the weather conditions in past years. The results will help you decide how hot, cold, wet, or windy it might be!

Date:

Astronomy

Jan. 19, 2013 Rise Set
Actual Time 8:15 AM CST 5:55 PM CST
Civil Twilight 7:45 AM CST 6:25 PM CST
Nautical Twilight 7:11 AM CST 6:59 PM CST
Astronomical Twilight 6:39 AM CST 7:32 PM CST
Moon 12:23 PM CST (1/19) 1:51 AM CST (1/19)
Length of Visible Light 10h 40m
Length of Day
9h 40m
First Quarter, 57% of the Moon is Illuminated
Jan 19
First Quarter
Jan 26
Full
Feb 3
Last Quarter
Feb 10
New
Feb 17
First Quarter

Hourly Weather History & Observations

Time (CST) Temp. Windchill Dew Point Humidity Pressure Visibility Wind Dir Wind Speed Gust Speed Precip Events Conditions
12:15 AM 39.0 °F 27.6 °F 10.4 °F 31% 29.99 in 10.0 mi WNW 27.6 mph 32.2 mph N/A   Clear
12:35 AM 39.4 °F 28.7 °F 10.2 °F 30% 30.00 in 10.0 mi WNW 24.2 mph 32.2 mph N/A   Clear
12:55 AM 39.9 °F 31.4 °F 9.7 °F 29% 30.01 in 10.0 mi WNW 16.1 mph 31.1 mph N/A   Clear
1:15 AM 37.4 °F 27.2 °F 10.0 °F 32% 30.00 in 10.0 mi WNW 19.6 mph - N/A   Clear
1:35 AM 37.6 °F 27.7 °F 10.2 °F 32% 30.01 in 10.0 mi West 18.4 mph - N/A   Clear
1:55 AM 37.4 °F 27.2 °F 10.0 °F 32% 30.01 in 10.0 mi WNW 19.6 mph - N/A   Clear
2:15 AM 37.6 °F 27.4 °F 10.0 °F 32% 30.02 in 10.0 mi WNW 19.6 mph - N/A   Clear
2:35 AM 38.3 °F 27.3 °F 9.7 °F 31% 30.03 in 10.0 mi WNW 24.2 mph 28.8 mph N/A   Clear
2:55 AM 36.5 °F 26.7 °F 10.2 °F 34% 30.04 in 10.0 mi WNW 17.3 mph - N/A   Clear
3:15 AM 36.1 °F 25.9 °F 10.2 °F 34% 30.04 in 10.0 mi WNW 18.4 mph - N/A   Clear
3:35 AM 34.9 °F 23.9 °F 10.2 °F 36% 30.04 in 10.0 mi WNW 19.6 mph - N/A   Clear
3:55 AM 36.0 °F 26.3 °F 9.5 °F 33% 30.05 in 10.0 mi WNW 16.1 mph - N/A   Clear
4:15 AM 35.8 °F 25.7 °F 9.5 °F 34% 30.05 in 10.0 mi WNW 17.3 mph - N/A   Clear
4:35 AM 35.6 °F 25.5 °F 9.5 °F 34% 30.05 in 10.0 mi WNW 17.3 mph - N/A   Clear
4:55 AM 34.2 °F 24.4 °F 9.5 °F 36% 30.06 in 10.0 mi West 15.0 mph - N/A   Clear
5:15 AM 32.7 °F 22.1 °F 10.4 °F 40% 30.07 in 10.0 mi WNW 16.1 mph - N/A   Clear
5:35 AM 33.3 °F 22.5 °F 10.4 °F 39% 30.08 in 10.0 mi WNW 17.3 mph - N/A   Clear
5:55 AM 32.5 °F 22.3 °F 10.4 °F 40% 30.10 in 10.0 mi WNW 15.0 mph - N/A   Clear
7:15 AM 32.2 °F 21.1 °F 10.8 °F 41% 30.12 in 10.0 mi WNW 17.3 mph 21.9 mph N/A   Clear
7:55 AM 32.0 °F 21.2 °F 10.6 °F 41% 30.13 in 10.0 mi WNW 16.1 mph - N/A   Clear
8:15 AM 31.8 °F 20.6 °F 10.4 °F 41% 30.14 in 10.0 mi WNW 17.3 mph - N/A   Clear
8:35 AM 32.2 °F 20.7 °F 10.4 °F 40% 30.14 in 10.0 mi WNW 18.4 mph - N/A   Clear
9:35 AM 38.3 °F 29.0 °F 9.7 °F 31% 30.17 in 10.0 mi WNW 17.3 mph - N/A   Clear
9:55 AM 40.3 °F 31.6 °F 9.5 °F 28% 30.18 in 10.0 mi WNW 17.3 mph 25.3 mph N/A   Clear
10:15 AM 42.3 °F 34.1 °F 9.5 °F 26% 30.19 in 10.0 mi WNW 17.3 mph 25.3 mph N/A   Clear
10:35 AM 44.4 °F 37.2 °F 9.5 °F 24% 30.20 in 10.0 mi NW 16.1 mph 24.2 mph N/A   Clear
10:55 AM 46.4 °F 39.2 °F 8.8 °F 22% 30.20 in 10.0 mi NW 18.4 mph 21.9 mph N/A   Clear
11:15 AM 47.8 °F - 7.7 °F 20% 30.19 in 10.0 mi WNW 21.9 mph 25.3 mph N/A   Clear
11:35 AM 49.5 °F - 7.9 °F 19% 30.19 in 10.0 mi NW 18.4 mph 23.0 mph N/A   Clear
11:55 AM 50.4 °F - 5.9 °F 16% 30.19 in 10.0 mi NW 17.3 mph 23.0 mph N/A   Clear
12:15 PM 51.1 °F - 6.1 °F 16% 30.19 in 10.0 mi WNW 17.3 mph 24.2 mph N/A   Clear
12:35 PM 51.8 °F - 5.7 °F 15% 30.17 in 10.0 mi NW 17.3 mph 27.6 mph N/A   Clear
12:55 PM 52.3 °F - 5.9 °F 15% 30.17 in 10.0 mi WNW 18.4 mph 25.3 mph N/A   Clear
1:15 PM 52.9 °F - 5.5 °F 15% 30.16 in 10.0 mi NW 16.1 mph 23.0 mph N/A   Clear
1:35 PM 52.7 °F - 3.9 °F 14% 30.15 in 10.0 mi NW 19.6 mph 26.5 mph N/A   Clear
1:55 PM 52.7 °F - 4.6 °F 14% 30.15 in 10.0 mi NNW 16.1 mph 25.3 mph N/A   Clear
2:15 PM 53.2 °F - 4.8 °F 14% 30.15 in 10.0 mi NNW 11.5 mph 17.3 mph N/A   Clear
2:35 PM 54.0 °F - 3.4 °F 13% 30.15 in 10.0 mi NW 12.7 mph 21.9 mph N/A   Clear
2:55 PM 53.8 °F - 3.7 °F 13% 30.15 in 10.0 mi NNW 15.0 mph 23.0 mph N/A   Clear
3:15 PM 53.8 °F - 4.8 °F 14% 30.15 in 10.0 mi NNW 12.7 mph 18.4 mph N/A   Clear
3:35 PM 53.8 °F - 6.4 °F 15% 30.15 in 10.0 mi NNW 15.0 mph 19.6 mph N/A   Clear
3:55 PM 53.6 °F - 7.2 °F 15% 30.14 in 10.0 mi North 15.0 mph 20.7 mph N/A   Clear
4:15 PM 52.7 °F - 7.3 °F 16% 30.13 in 10.0 mi NNW 18.4 mph - N/A   Clear
4:35 PM 52.2 °F - 6.8 °F 16% 30.14 in 10.0 mi NNW 11.5 mph - N/A   Clear
4:55 PM 50.7 °F - 7.7 °F 18% 30.14 in 10.0 mi North 5.8 mph - N/A   Clear
5:15 PM 49.5 °F - 5.7 °F 17% 30.15 in 10.0 mi NNW 9.2 mph 12.7 mph N/A   Clear
5:35 PM 44.8 °F 39.9 °F 7.7 °F 22% 30.15 in 10.0 mi North 9.2 mph - N/A   Clear
5:55 PM 41.9 °F 36.9 °F 7.9 °F 25% 30.15 in 10.0 mi North 8.1 mph - N/A   Clear
6:15 PM 42.1 °F 34.9 °F 7.9 °F 25% 30.15 in 10.0 mi North 13.8 mph 17.3 mph N/A   Clear
6:35 PM 41.2 °F 34.1 °F 8.4 °F 26% 30.16 in 10.0 mi North 12.7 mph - N/A   Clear
6:55 PM 40.6 °F 33.8 °F 8.4 °F 27% 30.17 in 10.0 mi NNW 11.5 mph - N/A   Clear
7:15 PM 39.7 °F 33.2 °F 8.6 °F 28% 30.17 in 10.0 mi NNW 10.4 mph - N/A   Clear
7:35 PM 38.3 °F 32.5 °F 8.8 °F 30% 30.18 in 10.0 mi NW 8.1 mph - N/A   Clear
7:55 PM 38.5 °F 31.6 °F 9.0 °F 30% 30.18 in 10.0 mi NNW 10.4 mph - N/A   Clear
8:15 PM 37.8 °F 33.3 °F 9.1 °F 31% 30.19 in 10.0 mi NW 5.8 mph - N/A   Clear
8:35 PM 33.8 °F 29.6 °F 9.1 °F 36% 30.19 in 10.0 mi NNW 4.6 mph - N/A   Clear
8:55 PM 35.2 °F 27.6 °F 9.5 °F 34% 30.18 in 10.0 mi NNW 10.4 mph - N/A   Clear
9:15 PM 34.3 °F 26.5 °F 9.5 °F 36% 30.18 in 10.0 mi North 10.4 mph - N/A   Clear
9:35 PM 34.0 °F 28.8 °F 10.2 °F 37% 30.18 in 10.0 mi NNE 5.8 mph - N/A   Clear
9:55 PM 32.5 °F - 10.9 °F 41% 30.17 in 10.0 mi Calm Calm - N/A   Clear
10:15 PM 31.3 °F - 11.7 °F 44% 30.17 in 10.0 mi Calm Calm - N/A   Clear
10:35 PM 28.9 °F - 12.4 °F 50% 30.17 in 10.0 mi Calm Calm - N/A   Clear
10:55 PM 29.1 °F 23.0 °F 12.9 °F 51% 30.17 in 10.0 mi SSW 5.8 mph - N/A   Clear
11:15 PM 28.4 °F 21.2 °F 13.6 °F 54% 30.17 in 10.0 mi SW 6.9 mph - N/A   Clear
11:35 PM 27.7 °F 22.4 °F 13.3 °F 55% 30.17 in 10.0 mi SSW 4.6 mph - N/A   Clear
11:55 PM 27.0 °F 20.5 °F 13.1 °F 56% 30.16 in 10.0 mi SSW 5.8 mph - N/A   Clear